| time (UTC) | temp F | wind direction | speed knots | gust knots | rain 1hr in | rain 24hr in | rain mn in | humidity % | barometer mb |
| 20260903060203 | 78 | 208 | 1.7 | 4.3 | 0.00 | 0.00 | 0.00 | 81 | 1016.5 |
| 20260903060114 | 78 | 211 | 2.6 | 2.6 | 0.00 | 0.00 | 0.00 | 81 | 1054.3 |
| 20260903055611 | 78 | 208 | 5.2 | 7.0 | 0.00 | 0.00 | 0.00 | 80 | 1054.6 |
| 20260903055203 | 78 | 231 | 4.3 | 7.0 | 0.00 | 0.00 | 0.00 | 80 | 1016.7 |
| 20260903055110 | 78 | 207 | 3.5 | 5.2 | 0.00 | 0.00 | 0.00 | 80 | 1054.1 |
| 20260903054702 | 78 | 223 | 2.6 | 7.0 | 0.00 | 0.00 | 0.00 | 80 | 1016.5 |
| 20260903054605 | 78 | 215 | 3.5 | 5.2 | 0.00 | 0.00 | 0.00 | 80 | 1054.3 |
| 20260903054202 | 78 | 215 | 2.6 | 7.0 | 0.00 | 0.00 | 0.00 | 80 | 1016.7 |
| 20260903054101 | 79 | 210 | 3.5 | 4.3 | 0.00 | 0.00 | 0.00 | 80 | 1054.3 |
| 20260903053702 | 79 | 197 | 4.3 | 7.0 | 0.00 | 0.00 | 0.00 | 80 | 1016.5 |
| 20260903053556 | 79 | 189 | 4.3 | 7.0 | 0.00 | 0.00 | 0.00 | 80 | 1054.3 |
| 20260903053202 | 79 | 203 | 3.5 | 7.0 | 0.00 | 0.00 | 0.00 | 79 | 1016.5 |
| 20260903053052 | 79 | 176 | 2.6 | 2.6 | 0.00 | 0.00 | 0.00 | 79 | 1054.2 |
| 20260903052702 | 79 | 202 | 2.6 | 7.0 | 0.00 | 0.00 | 0.00 | 79 | 1016.5 |
| 20260903052548 | 79 | 196 | 1.7 | 2.6 | 0.00 | 0.00 | 0.00 | 79 | 1054.4 |
| 20260903052202 | 79 | 233 | 2.6 | 6.1 | 0.00 | 0.00 | 0.00 | 79 | 1016.4 |
| 20260903052043 | 79 | 240 | 3.5 | 5.2 | 0.00 | 0.00 | 0.00 | 79 | 1054.2 |
| 20260903051543 | 79 | 210 | 1.7 | 1.7 | 0.00 | 0.00 | 0.00 | 79 | 1054.3 |
| 20260903051202 | 79 | 211 | 1.7 | 7.8 | 0.00 | 0.00 | 0.00 | 78 | 1016.4 |
| 20260903051039 | 79 | 196 | 2.6 | 2.6 | 0.00 | 0.00 | 0.00 | 78 | 1054.1 |
| 20260903050703 | 79 | 211 | 2.6 | 7.8 | 0.00 | 0.00 | 0.00 | 78 | 1016.4 |
| 20260903050537 | 79 | 203 | 1.7 | 2.6 | 0.00 | 0.00 | 0.00 | 78 | 1054.3 |
| 20260903050202 | 79 | 169 | 2.6 | 7.8 | 0.00 | 0.00 | 0.00 | 78 | 1016.5 |
| 20260903050033 | 79 | 165 | 2.6 | 2.6 | 0.00 | 0.00 | 0.00 | 78 | 1054.3 |
| 20260903045702 | 79 | 229 | 2.6 | 7.0 | 0.00 | 0.00 | 0.00 | 78 | 1016.2 |
| 20260903045532 | 79 | 237 | 4.3 | 7.0 | 0.00 | 0.00 | 0.00 | 78 | 1054.0 |
| 20260903045202 | 80 | 205 | 2.6 | 5.2 | 0.00 | 0.00 | 0.00 | 78 | 1016.3 |
| 20260903045029 | 80 | 201 | 2.6 | 2.6 | 0.00 | 0.00 | 0.00 | 78 | 1054.1 |
| 20260903044703 | 80 | 201 | 2.6 | 8.7 | 0.00 | 0.00 | 0.00 | 78 | 1016.2 |
| 20260903044525 | 80 | 188 | 2.6 | 5.2 | 0.00 | 0.00 | 0.00 | 78 | 1053.9 |
| 20260903044202 | 80 | 194 | 2.6 | 7.0 | 0.00 | 0.00 | 0.00 | 77 | 1016.2 |
| 20260903044020 | 80 | 200 | 2.6 | 4.3 | 0.00 | 0.00 | 0.00 | 77 | 1054.0 |
| 20260903043702 | 80 | 221 | 2.6 | 6.1 | 0.00 | 0.00 | 0.00 | 77 | 1016.2 |
| 20260903043516 | 80 | 222 | 1.7 | 4.3 | 0.00 | 0.00 | 0.00 | 77 | 1054.0 |
| 20260903043203 | 80 | 194 | 1.7 | 7.0 | 0.00 | 0.00 | 0.00 | 77 | 1016.1 |
| 20260903043015 | 80 | 176 | 1.7 | 2.6 | 0.00 | 0.00 | 0.00 | 77 | 1053.8 |
| 20260903042510 | 80 | 213 | 1.7 | 2.6 | 0.00 | 0.00 | 0.00 | 77 | 1053.9 |
| 20260903042006 | 80 | 220 | 4.3 | 5.2 | 0.00 | 0.00 | 0.00 | 77 | 1053.8 |
| 20260903041502 | 80 | 208 | 5.2 | 7.0 | 0.00 | 0.00 | 0.00 | 76 | 1053.8 |
| 20260903040957 | 80 | 222 | 7.8 | 13.0 | 0.00 | 0.00 | 0.00 | 76 | 1054.0 |
| 20260903040456 | 81 | 224 | 3.5 | 5.2 | 0.00 | 0.00 | 0.00 | 76 | 1053.8 |
| 20260903035953 | 81 | 205 | 2.6 | 2.6 | 0.00 | 0.00 | 0.00 | 76 | 1053.6 |
| 20260903035448 | 81 | 200 | 4.3 | 6.1 | 0.00 | 0.00 | 0.00 | 76 | 1053.7 |
| 20260903034943 | 81 | 196 | 3.5 | 4.3 | 0.00 | 0.00 | 0.00 | 76 | 1053.2 |
| 20260903034438 | 81 | 183 | 2.6 | 2.6 | 0.00 | 0.00 | 0.00 | 75 | 1053.3 |
| 20260903033933 | 81 | 233 | 2.6 | 5.2 | 0.00 | 0.00 | 0.00 | 75 | 1053.2 |
| 20260903033428 | 81 | 232 | 6.1 | 9.6 | 0.00 | 0.00 | 0.00 | 75 | 1053.3 |
| 20260903032929 | 81 | 206 | 2.6 | 4.3 | 0.00 | 0.00 | 0.00 | 75 | 1053.3 |
| 20260903032424 | 81 | 188 | 4.3 | 5.2 | 0.00 | 0.00 | 0.00 | 75 | 1053.5 |
| 20260903031919 | 81 | 187 | 6.1 | 7.0 | 0.00 | 0.00 | 0.00 | 75 | 1053.5 |
| 20260903031703 | 81 | 220 | 7.8 | 11.3 | 0.00 | 0.00 | 0.00 | 75 | 1015.9 |
| 20260903031419 | 81 | 190 | 8.7 | 11.3 | 0.00 | 0.00 | 0.00 | 75 | 1053.9 |
| 20260903031202 | 81 | 228 | 5.2 | 7.0 | 0.00 | 0.00 | 0.00 | 75 | 1015.9 |
| 20260903030914 | 81 | 217 | 5.2 | 7.0 | 0.00 | 0.00 | 0.00 | 75 | 1053.9 |
| 20260903030702 | 81 | 225 | 5.2 | 12.2 | 0.00 | 0.00 | 0.00 | 75 | 1016.0 |
| 20260903030410 | 81 | 214 | 7.0 | 12.2 | 0.00 | 0.00 | 0.00 | 75 | 1053.7 |
| 20260903025906 | 81 | 213 | 1.7 | 2.6 | 0.00 | 0.00 | 0.00 | 75 | 1054.0 |
| 20260903025401 | 81 | 211 | 2.6 | 4.3 | 0.00 | 0.00 | 0.00 | 75 | 1054.0 |
| 20260903025203 | 81 | 175 | 4.3 | 10.4 | 0.00 | 0.00 | 0.00 | 75 | 1016.2 |
| 20260903024856 | 81 | 211 | 1.7 | 4.3 | 0.00 | 0.00 | 0.00 | 75 | 1054.1 |
| 20260903024702 | 81 | 190 | 6.1 | 8.7 | 0.00 | 0.00 | 0.00 | 75 | 1016.4 |
| 20260903024356 | 81 | 205 | 6.1 | 7.8 | 0.00 | 0.00 | 0.00 | 75 | 1054.2 |
| 20260903024202 | 81 | 199 | 0.9 | 10.4 | 0.00 | 0.00 | 0.00 | 75 | 1016.4 |
| 20260903023851 | 81 | 224 | 5.2 | 9.6 | 0.00 | 0.00 | 0.00 | 75 | 1054.3 |
| 20260903023703 | 81 | 188 | 1.7 | 10.4 | 0.00 | 0.00 | 0.00 | 75 | 1016.6 |
| 20260903023347 | 81 | 201 | 4.3 | 8.7 | 0.00 | 0.00 | 0.00 | 75 | 1054.1 |
| 20260903023202 | 81 | 205 | 3.5 | 8.7 | 0.00 | 0.00 | 0.00 | 75 | 1016.6 |
| 20260903022842 | 81 | 202 | 2.6 | 2.6 | 0.00 | 0.00 | 0.00 | 74 | 1054.3 |
| 20260903022703 | 81 | 187 | 4.3 | 8.7 | 0.00 | 0.00 | 0.00 | 74 | 1016.5 |
| 20260903022341 | 81 | 210 | 3.5 | 5.2 | 0.00 | 0.00 | 0.00 | 74 | 1054.3 |
| 20260903022203 | 81 | 215 | 2.6 | 5.2 | 0.00 | 0.00 | 0.00 | 74 | 1016.6 |
| 20260903021839 | 81 | 183 | 0.9 | 1.7 | 0.00 | 0.00 | 0.00 | 74 | 1054.1 |
| 20260903021703 | 81 | 204 | 0.9 | 2.6 | 0.00 | 0.00 | 0.00 | 74 | 1016.7 |
| 20260903021336 | 81 | 201 | 1.7 | 1.7 | 0.00 | 0.00 | 0.00 | 74 | 1054.2 |
| 20260903020835 | 82 | 184 | 0.0 | 0.9 | 0.00 | 0.00 | 0.00 | 74 | 1054.4 |
| 20260903020330 | 82 | 201 | 2.6 | 4.3 | 0.00 | 0.00 | 0.00 | 74 | 1054.2 |
| 20260903020203 | 82 | 204 | 1.7 | 4.3 | 0.00 | 0.00 | 0.00 | 74 | 1016.5 |
| 20260903015825 | 82 | 190 | 0.0 | 0.9 | 0.00 | 0.00 | 0.00 | 73 | 1054.4 |
| 20260903015703 | 82 | 179 | 1.7 | 4.3 | 0.00 | 0.00 | 0.00 | 73 | 1016.6 |
| 20260903015321 | 82 | 197 | 2.6 | 4.3 | 0.00 | 0.00 | 0.00 | 73 | 1054.4 |
| 20260903014816 | 81 | 176 | 0.9 | 1.7 | 0.00 | 0.00 | 0.00 | 73 | 1054.3 |
| 20260903014703 | 81 | 196 | 0.9 | 1.7 | 0.00 | 0.00 | 0.00 | 73 | 1016.6 |
| 20260903014316 | 81 | 172 | 1.7 | 1.7 | 0.00 | 0.00 | 0.00 | 73 | 1054.4 |
| 20260903014203 | 81 | 200 | 0.9 | 4.3 | 0.00 | 0.00 | 0.00 | 73 | 1016.6 |
| 20260903013811 | 81 | 185 | 0.0 | 0.9 | 0.00 | 0.00 | 0.00 | 73 | 1054.4 |
| 20260903013703 | 81 | 193 | 0.9 | 4.3 | 0.00 | 0.00 | 0.00 | 73 | 1016.4 |
| 20260903013310 | 82 | 169 | 0.9 | 0.9 | 0.00 | 0.00 | 0.00 | 73 | 1054.3 |
| 20260903013203 | 82 | 221 | 1.7 | 1.7 | 0.00 | 0.00 | 0.00 | 73 | 1016.6 |
| 20260903012809 | 82 | 198 | 0.9 | 0.9 | 0.00 | 0.00 | 0.00 | 73 | 1054.3 |
| 20260903012306 | 82 | 198 | 0.9 | 0.9 | 0.00 | 0.00 | 0.00 | 73 | 1054.0 |
| 20260903012202 | 82 | 203 | 0.9 | 2.6 | 0.00 | 0.00 | 0.00 | 73 | 1016.5 |
| 20260903011803 | 82 | 189 | 1.7 | 1.7 | 0.00 | 0.00 | 0.00 | 73 | 1054.1 |
| 20260903011702 | 82 | 183 | 0.9 | 1.7 | 0.00 | 0.00 | 0.00 | 73 | 1016.5 |
| 20260903011302 | 82 | 149 | 0.9 | 1.7 | 0.00 | 0.00 | 0.00 | 72 | 1054.3 |
| 20260903011202 | 82 | 211 | 1.7 | 1.7 | 0.00 | 0.00 | 0.00 | 72 | 1016.4 |
| 20260903010758 | 82 | 239 | 0.9 | 0.9 | 0.00 | 0.00 | 0.00 | 72 | 1054.2 |
| 20260903010702 | 82 | 210 | 0.9 | 2.6 | 0.00 | 0.00 | 0.00 | 72 | 1016.3 |
| 20260903010254 | 82 | 200 | 1.7 | 1.7 | 0.00 | 0.00 | 0.00 | 72 | 1054.0 |
| 20260903010202 | 82 | 200 | 1.7 | 2.6 | 0.00 | 0.00 | 0.00 | 72 | 1016.5 |
| 20260903005752 | 82 | 208 | 0.9 | 1.7 | 0.00 | 0.00 | 0.00 | 72 | 1054.1 |
| 20260903005702 | 82 | 196 | 0.9 | 1.7 | 0.00 | 0.00 | 0.00 | 72 | 1016.2 |
| 20260903005247 | 82 | 248 | 0.9 | 1.7 | 0.00 | 0.00 | 0.00 | 72 | 1054.0 |
| 20260903005202 | 83 | 203 | 0.9 | 1.7 | 0.00 | 0.00 | 0.00 | 72 | 1016.4 |
| 20260903004743 | 83 | 176 | 0.9 | 0.9 | 0.00 | 0.00 | 0.00 | 71 | 1054.0 |
| 20260903004702 | 83 | 166 | 0.9 | 2.6 | 0.00 | 0.00 | 0.00 | 71 | 1016.3 |
| 20260903004238 | 83 | 192 | 1.7 | 1.7 | 0.00 | 0.00 | 0.00 | 71 | 1054.0 |
| 20260903004202 | 83 | 194 | 0.9 | 2.6 | 0.00 | 0.00 | 0.00 | 71 | 1016.0 |
| 20260903003734 | 83 | 175 | 0.0 | 0.0 | 0.00 | 0.00 | 0.00 | 71 | 1054.0 |
| 20260903003703 | 83 | 194 | 0.0 | 4.3 | 0.00 | 0.00 | 0.00 | 71 | 1016.0 |
| 20260903003229 | 83 | 232 | 1.7 | 2.6 | 0.00 | 0.00 | 0.00 | 70 | 1053.9 |
| 20260903003202 | 83 | 195 | 1.7 | 4.3 | 0.00 | 0.00 | 0.00 | 70 | 1015.9 |
| 20260903002723 | 84 | 186 | 0.9 | 1.7 | 0.00 | 0.00 | 0.00 | 70 | 1053.8 |
| 20260903002702 | 84 | 220 | 1.7 | 4.3 | 0.00 | 0.00 | 0.00 | 70 | 1015.8 |
| 20260903002217 | 84 | 197 | 0.0 | 0.9 | 0.00 | 0.00 | 0.00 | 69 | 1053.8 |
| 20260903002203 | 84 | 229 | 1.7 | 4.3 | 0.00 | 0.00 | 0.00 | 69 | 1016.1 |
| 20260903001713 | 84 | 191 | 0.0 | 0.0 | 0.00 | 0.00 | 0.00 | 69 | 1053.6 |
| 20260903001212 | 84 | 184 | 0.0 | 0.0 | 0.00 | 0.00 | 0.00 | 68 | 1053.7 |
| 20260903001202 | 84 | 177 | 0.9 | 4.3 | 0.00 | 0.00 | 0.00 | 68 | 1016.0 |
| 20260903000708 | 84 | 219 | 0.0 | 0.9 | 0.00 | 0.00 | 0.00 | 67 | 1054.0 |
| 20260903000702 | 84 | 214 | 1.7 | 4.3 | 0.00 | 0.00 | 0.00 | 67 | 1016.2 |
| 20260903000207 | 85 | 208 | 1.7 | 1.7 | 0.00 | 0.00 | 0.00 | 67 | 1053.7 |
| 20260903000204 | 85 | 215 | 1.7 | 4.3 | 0.00 | 0.00 | 0.00 | 67 | 1016.1 |
| 20260902235706 | 85 | 180 | 0.0 | 0.9 | 0.00 | 0.00 | 0.00 | 67 | 1053.8 |
| 20260902235703 | 85 | 191 | 0.9 | 1.7 | 0.00 | 0.00 | 0.00 | 67 | 1016.1 |
| 20260902235203 | 85 | 210 | 0.9 | 2.6 | 0.00 | 0.00 | 0.00 | 66 | 1016.1 |
| 20260902235201 | 85 | 196 | 0.9 | 1.7 | 0.00 | 0.00 | 0.00 | 66 | 1053.9 |
| 20260902234702 | 85 | 199 | 0.9 | 4.3 | 0.00 | 0.00 | 0.00 | 66 | 1016.2 |
| 20260902234203 | 86 | 202 | 1.7 | 2.6 | 0.00 | 0.00 | 0.00 | 65 | 1016.0 |
| 20260902234159 | 86 | 202 | 2.6 | 2.6 | 0.00 | 0.00 | 0.00 | 65 | 1053.7 |
| 20260902233703 | 86 | 219 | 2.6 | 5.2 | 0.00 | 0.00 | 0.00 | 65 | 1016.1 |
| 20260902233654 | 86 | 204 | 0.9 | 0.9 | 0.00 | 0.00 | 0.00 | 65 | 1053.7 |
| 20260902233203 | 86 | 206 | 2.6 | 4.3 | 0.00 | 0.00 | 0.00 | 64 | 1016.0 |
| 20260902233154 | 86 | 197 | 2.6 | 4.3 | 0.00 | 0.00 | 0.00 | 64 | 1053.7 |
| 20260902232703 | 87 | 199 | 2.6 | 4.3 | 0.00 | 0.00 | 0.00 | 63 | 1015.8 |
| 20260902232653 | 87 | 162 | 2.6 | 2.6 | 0.00 | 0.00 | 0.00 | 63 | 1053.6 |
| 20260902232202 | 87 | 203 | 1.7 | 5.2 | 0.00 | 0.00 | 0.00 | 63 | 1016.0 |
| 20260902232153 | 87 | 210 | 2.6 | 2.6 | 0.00 | 0.00 | 0.00 | 63 | 1053.8 |
| 20260902231702 | 87 | 228 | 1.7 | 6.1 | 0.00 | 0.00 | 0.00 | 63 | 1015.9 |
| 20260902231647 | 87 | 237 | 1.7 | 1.7 | 0.00 | 0.00 | 0.00 | 63 | 1053.8 |
| 20260902231203 | 87 | 280 | 2.6 | 6.1 | 0.00 | 0.00 | 0.00 | 63 | 1016.0 |
| 20260902231142 | 87 | 292 | 3.5 | 6.1 | 0.00 | 0.00 | 0.00 | 63 | 1053.8 |
| 20260902230702 | 88 | 229 | 2.6 | 4.3 | 0.00 | 0.00 | 0.00 | 63 | 1015.9 |
| 20260902230637 | 88 | 227 | 3.5 | 4.3 | 0.00 | 0.00 | 0.00 | 63 | 1053.6 |
| 20260902230202 | 88 | 194 | 1.7 | 7.0 | 0.00 | 0.00 | 0.00 | 63 | 1015.8 |
| 20260902230136 | 88 | 198 | 2.6 | 2.6 | 0.00 | 0.00 | 0.00 | 63 | 1053.5 |
| 20260902225702 | 88 | 245 | 2.6 | 7.0 | 0.00 | 0.00 | 0.00 | 62 | 1016.0 |
| 20260902225631 | 88 | 253 | 6.1 | 7.0 | 0.00 | 0.00 | 0.00 | 62 | 1053.8 |
| 20260902225202 | 89 | 201 | 1.7 | 5.2 | 0.00 | 0.00 | 0.00 | 62 | 1015.9 |
| 20260902225131 | 89 | 194 | 2.6 | 2.6 | 0.00 | 0.00 | 0.00 | 62 | 1053.8 |
| 20260902224629 | 89 | 224 | 1.7 | 2.6 | 0.00 | 0.00 | 0.00 | 61 | 1053.8 |
| 20260902224203 | 90 | 216 | 1.7 | 4.3 | 0.00 | 0.00 | 0.00 | 60 | 1016.0 |
| 20260902224125 | 90 | 205 | 2.6 | 4.3 | 0.00 | 0.00 | 0.00 | 60 | 1053.9 |
| 20260902223703 | 90 | 244 | 3.5 | 6.1 | 0.00 | 0.00 | 0.00 | 60 | 1016.0 |
| 20260902223621 | 90 | 250 | 3.5 | 4.3 | 0.00 | 0.00 | 0.00 | 60 | 1053.8 |
| 20260902223202 | 90 | 279 | 2.6 | 7.0 | 0.00 | 0.00 | 0.00 | 59 | 1016.1 |
| 20260902223120 | 90 | 237 | 2.6 | 2.6 | 0.00 | 0.00 | 0.00 | 59 | 1053.8 |
| 20260902222702 | 91 | 204 | 1.7 | 4.3 | 0.00 | 0.00 | 0.00 | 59 | 1015.9 |
| 20260902222619 | 91 | 160 | 0.0 | 0.0 | 0.00 | 0.00 | 0.00 | 59 | 1053.6 |
| 20260902222202 | 91 | 226 | 2.6 | 4.3 | 0.00 | 0.00 | 0.00 | 59 | 1016.1 |
| 20260902222119 | 91 | 250 | 1.7 | 4.3 | 0.00 | 0.00 | 0.00 | 59 | 1053.7 |
| 20260902221703 | 91 | 210 | 3.5 | 6.1 | 0.00 | 0.00 | 0.00 | 58 | 1016.0 |
| 20260902221613 | 91 | 221 | 3.5 | 6.1 | 0.00 | 0.00 | 0.00 | 58 | 1053.8 |
| 20260902221203 | 91 | 185 | 4.3 | 7.0 | 0.00 | 0.00 | 0.00 | 58 | 1016.1 |
| 20260902221108 | 91 | 171 | 4.3 | 7.0 | 0.00 | 0.00 | 0.00 | 58 | 1053.8 |
| 20260902220703 | 91 | 222 | 3.5 | 6.1 | 0.00 | 0.00 | 0.00 | 58 | 1016.0 |
| 20260902220604 | 91 | 216 | 3.5 | 4.3 | 0.00 | 0.00 | 0.00 | 59 | 1053.8 |
| 20260902220203 | 92 | 205 | 1.7 | 6.1 | 0.00 | 0.00 | 0.00 | 59 | 1016.0 |
| 20260902220058 | 92 | 206 | 0.9 | 1.7 | 0.00 | 0.00 | 0.00 | 59 | 1053.7 |
| 20260902215703 | 91 | 220 | 3.5 | 7.0 | 0.00 | 0.00 | 0.00 | 60 | 1016.1 |
| 20260902215554 | 91 | 231 | 1.7 | 1.7 | 0.00 | 0.00 | 0.00 | 60 | 1053.9 |
| 20260902215202 | 92 | 229 | 1.7 | 4.3 | 0.00 | 0.00 | 0.00 | 59 | 1015.9 |
| 20260902215050 | 92 | 246 | 2.6 | 2.6 | 0.00 | 0.00 | 0.00 | 59 | 1053.8 |
| 20260902214703 | 91 | 206 | 2.6 | 5.2 | 0.00 | 0.00 | 0.00 | 60 | 1016.1 |
| 20260902214549 | 91 | 219 | 4.3 | 5.2 | 0.00 | 0.00 | 0.00 | 60 | 1053.9 |
| 20260902214203 | 90 | 226 | 1.7 | 5.2 | 0.00 | 0.00 | 0.00 | 60 | 1016.2 |
| 20260902214049 | 90 | 252 | 2.6 | 4.3 | 0.00 | 0.00 | 0.00 | 60 | 1054.0 |
| 20260902213703 | 90 | 188 | 2.6 | 7.8 | 0.00 | 0.00 | 0.00 | 60 | 1016.2 |
| 20260902213544 | 90 | 175 | 3.5 | 7.0 | 0.00 | 0.00 | 0.00 | 59 | 1053.9 |
| 20260902213203 | 91 | 228 | 1.7 | 6.1 | 0.00 | 0.00 | 0.00 | 59 | 1015.9 |
| 20260902213044 | 91 | 248 | 1.7 | 1.7 | 0.00 | 0.00 | 0.00 | 59 | 1053.7 |
| 20260902212703 | 90 | 207 | 2.6 | 6.1 | 0.00 | 0.00 | 0.00 | 59 | 1016.1 |
| 20260902212539 | 90 | 238 | 3.5 | 6.1 | 0.00 | 0.00 | 0.00 | 60 | 1054.1 |
| 20260902212203 | 91 | 219 | 1.7 | 4.3 | 0.00 | 0.00 | 0.00 | 59 | 1016.2 |
| 20260902212035 | 91 | 229 | 2.6 | 4.3 | 0.00 | 0.00 | 0.00 | 59 | 1053.9 |
| 20260902211703 | 91 | 224 | 2.6 | 6.1 | 0.00 | 0.00 | 0.00 | 59 | 1016.3 |
| 20260902211532 | 92 | 207 | 3.5 | 6.1 | 0.00 | 0.00 | 0.00 | 58 | 1054.0 |
| 20260902211203 | 91 | 277 | 2.6 | 5.2 | 0.00 | 0.00 | 0.00 | 58 | 1016.2 |
| 20260902211026 | 91 | 286 | 2.6 | 4.3 | 0.00 | 0.00 | 0.00 | 58 | 1053.8 |
| 20260902210703 | 92 | 243 | 1.7 | 4.3 | 0.00 | 0.00 | 0.00 | 57 | 1016.5 |
| 20260902210526 | 92 | 210 | 0.9 | 1.7 | 0.00 | 0.00 | 0.00 | 57 | 1054.3 |
| 20260902210203 | 92 | 237 | 3.5 | 7.8 | 0.00 | 0.00 | 0.00 | 56 | 1016.4 |
| 20260902210026 | 92 | 265 | 3.5 | 5.2 | 0.00 | 0.00 | 0.00 | 56 | 1054.1 |
| 20260902205520 | 92 | 262 | 3.5 | 4.3 | 0.00 | 0.00 | 0.00 | 55 | 1054.2 |
| 20260902205203 | 93 | 214 | 4.3 | 8.7 | 0.00 | 0.00 | 0.00 | 54 | 1016.5 |
| 20260902205016 | 93 | 228 | 4.3 | 5.2 | 0.00 | 0.00 | 0.00 | 54 | 1054.2 |
| 20260902204703 | 92 | 211 | 2.6 | 7.0 | 0.00 | 0.00 | 0.00 | 55 | 1016.6 |
| 20260902204515 | 92 | 196 | 1.7 | 2.6 | 0.00 | 0.00 | 0.00 | 55 | 1054.3 |
| 20260902204203 | 93 | 179 | 5.2 | 7.8 | 0.00 | 0.00 | 0.00 | 55 | 1016.6 |
| 20260902204010 | 93 | 236 | 5.2 | 7.8 | 0.00 | 0.00 | 0.00 | 54 | 1054.4 |
| 20260902203703 | 93 | 204 | 1.7 | 8.7 | 0.00 | 0.00 | 0.00 | 55 | 1016.6 |
| 20260902203506 | 93 | 216 | 1.7 | 1.7 | 0.00 | 0.00 | 0.00 | 55 | 1054.6 |
| 20260902203203 | 93 | 223 | 3.5 | 8.7 | 0.00 | 0.00 | 0.00 | 54 | 1016.8 |
| 20260902203004 | 93 | 88 | 2.6 | 2.6 | 0.00 | 0.00 | 0.00 | 54 | 1054.5 |
| 20260902202703 | 92 | 184 | 2.6 | 6.1 | 0.00 | 0.00 | 0.00 | 55 | 1016.7 |
| 20260902202501 | 91 | 183 | 5.2 | 6.1 | 0.00 | 0.00 | 0.00 | 56 | 1054.4 |
| 20260902202203 | 92 | 201 | 6.1 | 11.3 | 0.00 | 0.00 | 0.00 | 56 | 1016.7 |
| 20260902201957 | 93 | 308 | 7.0 | 8.7 | 0.00 | 0.00 | 0.00 | 55 | 1054.6 |
| 20260902201703 | 93 | 217 | 2.6 | 4.3 | 0.00 | 0.00 | 0.00 | 55 | 1016.8 |
| 20260902201457 | 93 | 211 | 0.0 | 0.0 | 0.00 | 0.00 | 0.00 | 55 | 1054.4 |
| 20260902201203 | 93 | 206 | 5.2 | 7.8 | 0.00 | 0.00 | 0.00 | 55 | 1016.9 |
| 20260902200952 | 93 | 198 | 2.6 | 5.2 | 0.00 | 0.00 | 0.00 | 56 | 1054.6 |
| 20260902200702 | 92 | 190 | 4.3 | 8.7 | 0.00 | 0.00 | 0.00 | 56 | 1016.9 |
| 20260902200447 | 93 | 233 | 6.1 | 7.8 | 0.00 | 0.00 | 0.00 | 56 | 1054.7 |
| 20260902200203 | 93 | 213 | 2.6 | 6.1 | 0.00 | 0.00 | 0.00 | 56 | 1017.0 |
| 20260902195942 | 93 | 317 | 1.7 | 1.7 | 0.00 | 0.00 | 0.00 | 57 | 1054.6 |
| 20260902195703 | 93 | 178 | 4.3 | 8.7 | 0.00 | 0.00 | 0.00 | 56 | 1017.0 |
| 20260902195438 | 93 | 194 | 7.0 | 8.7 | 0.00 | 0.00 | 0.00 | 56 | 1054.7 |
| 20260902195203 | 92 | 218 | 3.5 | 10.4 | 0.00 | 0.00 | 0.00 | 56 | 1017.0 |
| 20260902194937 | 92 | 239 | 4.3 | 6.1 | 0.00 | 0.00 | 0.00 | 56 | 1054.7 |
| 20260902194437 | 93 | 192 | 3.5 | 5.2 | 0.00 | 0.00 | 0.00 | 55 | 1054.7 |
| 20260902194203 | 92 | 242 | 5.2 | 11.3 | 0.00 | 0.00 | 0.00 | 57 | 1017.1 |
| 20260902193932 | 92 | 345 | 4.3 | 9.6 | 0.00 | 0.00 | 0.00 | 57 | 1055.1 |
| 20260902193703 | 92 | 237 | 2.6 | 7.0 | 0.00 | 0.00 | 0.00 | 56 | 1017.0 |
| 20260902193428 | 92 | 253 | 2.6 | 2.6 | 0.00 | 0.00 | 0.00 | 56 | 1054.7 |
| 20260902193203 | 92 | 213 | 3.5 | 10.4 | 0.00 | 0.00 | 0.00 | 57 | 1017.0 |
| 20260902192927 | 92 | 142 | 3.5 | 6.1 | 0.00 | 0.00 | 0.00 | 57 | 1054.9 |
| 20260902192703 | 93 | 249 | 4.3 | 10.4 | 0.00 | 0.00 | 0.00 | 57 | 1017.2 |
| 20260902192426 | 93 | 167 | 4.3 | 7.0 | 0.00 | 0.00 | 0.00 | 56 | 1054.9 |
| 20260902191924 | 93 | 197 | 2.6 | 4.3 | 0.00 | 0.00 | 0.00 | 57 | 1055.1 |
| 20260902191420 | 92 | 223 | 2.6 | 2.6 | 0.00 | 0.00 | 0.00 | 57 | 1055.1 |
| 20260902190915 | 92 | 202 | 2.6 | 5.2 | 0.00 | 0.00 | 0.00 | 57 | 1055.2 |
| 20260902190703 | 92 | 208 | 1.7 | 10.4 | 0.00 | 0.00 | 0.00 | 59 | 1017.4 |
| 20260902190411 | 92 | 186 | 7.8 | 9.6 | 0.00 | 0.00 | 0.00 | 58 | 1055.3 |
| 20260902190203 | 92 | 224 | 4.3 | 6.1 | 0.00 | 0.00 | 0.00 | 58 | 1017.3 |
| 20260902185906 | 92 | 215 | 1.7 | 4.3 | 0.00 | 0.00 | 0.00 | 58 | 1055.3 |
| 20260902185702 | 92 | 240 | 2.6 | 11.3 | 0.00 | 0.00 | 0.00 | 58 | 1017.5 |
| 20260902185402 | 92 | 229 | 9.6 | 11.3 | 0.00 | 0.00 | 0.00 | 58 | 1055.1 |
| 20260902185203 | 92 | 203 | 4.3 | 11.3 | 0.00 | 0.00 | 0.00 | 59 | 1017.5 |
| 20260902184857 | 91 | 240 | 5.2 | 7.0 | 0.00 | 0.00 | 0.00 | 59 | 1055.2 |
| 20260902184706 | 92 | 209 | 4.3 | 7.8 | 0.00 | 0.00 | 0.00 | 60 | 1017.4 |
| 20260902184352 | 92 | 257 | 3.5 | 4.3 | 0.00 | 0.00 | 0.00 | 60 | 1055.2 |
| 20260902184203 | 91 | 228 | 2.6 | 14.8 | 0.00 | 0.00 | 0.00 | 60 | 1017.4 |
| 20260902183848 | 92 | 203 | 9.6 | 14.8 | 0.00 | 0.00 | 0.00 | 60 | 1055.5 |
| 20260902183702 | 92 | 184 | 5.2 | 7.8 | 0.00 | 0.00 | 0.00 | 60 | 1017.6 |
| 20260902183344 | 92 | 322 | 2.6 | 2.6 | 0.00 | 0.00 | 0.00 | 61 | 1055.4 |
| 20260902183203 | 91 | 214 | 6.1 | 11.3 | 0.00 | 0.00 | 0.00 | 62 | 1017.6 |
| 20260902182840 | 92 | 264 | 7.0 | 11.3 | 0.00 | 0.00 | 0.00 | 62 | 1055.4 |
| 20260902182703 | 92 | 231 | 4.3 | 8.7 | 0.00 | 0.00 | 0.00 | 61 | 1017.5 |
| 20260902182336 | 92 | 203 | 4.3 | 8.7 | 0.00 | 0.00 | 0.00 | 61 | 1055.6 |
| 20260902182203 | 91 | 176 | 5.2 | 8.7 | 0.00 | 0.00 | 0.00 | 62 | 1017.6 |
| 20260902181832 | 91 | 240 | 4.3 | 7.0 | 0.00 | 0.00 | 0.00 | 62 | 1055.5 |
| 20260902181328 | 91 | 211 | 4.3 | 9.6 | 0.00 | 0.00 | 0.00 | 63 | 1055.5 |
| 20260902181203 | 91 | 220 | 6.1 | 14.8 | 0.00 | 0.00 | 0.00 | 63 | 1017.7 |
| 20260902180827 | 91 | 191 | 5.2 | 6.1 | 0.00 | 0.00 | 0.00 | 63 | 1055.5 |
| 20260902180703 | 91 | 217 | 4.3 | 12.2 | 0.00 | 0.00 | 0.00 | 63 | 1018.0 |
| 20260902180323 | 91 | 213 | 7.8 | 12.2 | 0.00 | 0.00 | 0.00 | 63 | 1055.6 |
| 20260902180203 | 91 | 220 | 1.7 | 7.0 | 0.00 | 0.00 | 0.00 | 63 | 1017.9 |
| 20260902175818 | 91 | 219 | 2.6 | 4.3 | 0.00 | 0.00 | 0.00 | 63 | 1055.7 |
| 20260902175703 | 91 | 222 | 2.6 | 7.0 | 0.00 | 0.00 | 0.00 | 63 | 1017.9 |
| 20260902175313 | 91 | 211 | 2.6 | 2.6 | 0.00 | 0.00 | 0.00 | 63 | 1055.7 |
| 20260902175203 | 91 | 206 | 4.3 | 8.7 | 0.00 | 0.00 | 0.00 | 62 | 1018.0 |
| 20260902174809 | 91 | 191 | 4.3 | 6.1 | 0.00 | 0.00 | 0.00 | 63 | 1055.7 |
| 20260902174703 | 91 | 223 | 2.6 | 13.0 | 0.00 | 0.00 | 0.00 | 62 | 1017.9 |
| 20260902174306 | 91 | 194 | 4.3 | 6.1 | 0.00 | 0.00 | 0.00 | 62 | 1055.8 |
| 20260902174202 | 91 | 224 | 5.2 | 10.4 | 0.00 | 0.00 | 0.00 | 63 | 1017.9 |
| 20260902173801 | 91 | 205 | 3.5 | 5.2 | 0.00 | 0.00 | 0.00 | 63 | 1055.7 |
| 20260902173703 | 91 | 220 | 2.6 | 8.7 | 0.00 | 0.00 | 0.00 | 63 | 1018.1 |
| 20260902173301 | 91 | 234 | 2.6 | 2.6 | 0.00 | 0.00 | 0.00 | 63 | 1055.8 |
| 20260902172755 | 90 | 186 | 0.9 | 1.7 | 0.00 | 0.00 | 0.00 | 64 | 1056.2 |
| 20260902172702 | 90 | 182 | 2.6 | 6.1 | 0.00 | 0.00 | 0.00 | 64 | 1018.5 |
| 20260902172255 | 90 | 191 | 0.9 | 0.9 | 0.00 | 0.00 | 0.00 | 65 | 1056.3 |
| 20260902172203 | 90 | 215 | 4.3 | 13.0 | 0.00 | 0.00 | 0.00 | 64 | 1018.4 |
| 20260902171750 | 90 | 210 | 1.7 | 1.7 | 0.00 | 0.00 | 0.00 | 64 | 1056.1 |
| 20260902171703 | 90 | 212 | 2.6 | 7.0 | 0.00 | 0.00 | 0.00 | 63 | 1018.6 |
| 20260902171245 | 89 | 186 | 3.5 | 4.3 | 0.00 | 0.00 | 0.00 | 65 | 1056.3 |
| 20260902171203 | 89 | 217 | 4.3 | 10.4 | 0.00 | 0.00 | 0.00 | 64 | 1018.8 |
| 20260902170742 | 89 | 221 | 8.7 | 9.6 | 0.00 | 0.00 | 0.00 | 65 | 1056.4 |
| 20260902170703 | 90 | 208 | 5.2 | 11.3 | 0.00 | 0.00 | 0.00 | 66 | 1018.7 |
| 20260902170237 | 90 | 211 | 4.3 | 6.1 | 0.00 | 0.00 | 0.00 | 64 | 1056.3 |
| 20260902170203 | 89 | 236 | 2.6 | 10.4 | 0.00 | 0.00 | 0.00 | 64 | 1018.6 |
| 20260902165732 | 88 | 210 | 4.3 | 7.0 | 0.00 | 0.00 | 0.00 | 66 | 1056.3 |
| 20260902165226 | 88 | 217 | 8.7 | 11.3 | 0.00 | 0.00 | 0.00 | 65 | 1056.3 |
| 20260902165202 | 88 | 212 | 7.0 | 13.0 | 0.00 | 0.00 | 0.00 | 65 | 1018.5 |
| 20260902164721 | 89 | 232 | 4.3 | 7.0 | 0.00 | 0.00 | 0.00 | 65 | 1056.3 |
| 20260902164703 | 89 | 228 | 4.3 | 10.4 | 0.00 | 0.00 | 0.00 | 64 | 1018.6 |
| 20260902164221 | 90 | 226 | 1.7 | 2.6 | 0.00 | 0.00 | 0.00 | 63 | 1056.2 |
| 20260902163716 | 89 | 209 | 2.6 | 2.6 | 0.00 | 0.00 | 0.00 | 65 | 1056.5 |
| 20260902163704 | 89 | 215 | 3.5 | 11.3 | 0.00 | 0.00 | 0.00 | 64 | 1018.5 |
| 20260902163215 | 88 | 216 | 2.6 | 4.3 | 0.00 | 0.00 | 0.00 | 67 | 1056.2 |
| 20260902163204 | 88 | 229 | 2.6 | 5.2 | 0.00 | 0.00 | 0.00 | 65 | 1018.6 |
| 20260902162714 | 88 | 235 | 2.6 | 2.6 | 0.00 | 0.00 | 0.00 | 66 | 1056.4 |
| 20260902162704 | 88 | 205 | 2.6 | 6.1 | 0.00 | 0.00 | 0.00 | 67 | 1018.7 |
| 20260902162209 | 88 | 172 | 2.6 | 2.6 | 0.00 | 0.00 | 0.00 | 67 | 1056.8 |
| 20260902162203 | 88 | 181 | 1.7 | 5.2 | 0.00 | 0.00 | 0.00 | 67 | 1018.8 |
| 20260902161704 | 87 | 185 | 4.3 | 8.7 | 0.00 | 0.00 | 0.00 | 67 | 1018.7 |
| 20260902161159 | 87 | 263 | 6.1 | 8.7 | 0.00 | 0.00 | 0.00 | 67 | 1056.4 |
| 20260902160704 | 87 | 284 | 3.5 | 8.7 | 0.00 | 0.00 | 0.00 | 68 | 1018.7 |
| 20260902160656 | 87 | 302 | 6.1 | 8.7 | 0.00 | 0.00 | 0.00 | 68 | 1056.5 |
| 20260902160150 | 88 | 191 | 4.3 | 6.1 | 0.00 | 0.00 | 0.00 | 66 | 1056.4 |
| 20260902155703 | 87 | 206 | 1.7 | 2.6 | 0.00 | 0.00 | 0.00 | 67 | 1018.6 |
| 20260902155649 | 87 | 219 | 1.7 | 2.6 | 0.00 | 0.00 | 0.00 | 67 | 1056.3 |
| 20260902155204 | 86 | 204 | 2.6 | 13.0 | 0.00 | 0.00 | 0.00 | 69 | 1018.7 |
| 20260902155148 | 86 | 197 | 0.0 | 0.9 | 0.00 | 0.00 | 0.00 | 69 | 1056.5 |
| 20260902154703 | 86 | 218 | 5.2 | 13.0 | 0.00 | 0.00 | 0.00 | 68 | 1018.6 |
| 20260902154643 | 86 | 219 | 10.4 | 13.0 | 0.00 | 0.00 | 0.00 | 68 | 1056.3 |
| 20260902154204 | 87 | 177 | 5.2 | 10.4 | 0.00 | 0.00 | 0.00 | 67 | 1018.6 |
| 20260902154143 | 87 | 167 | 7.0 | 9.6 | 0.00 | 0.00 | 0.00 | 67 | 1056.4 |
| 20260902153704 | 86 | 225 | 4.3 | 11.3 | 0.00 | 0.00 | 0.00 | 69 | 1018.7 |
| 20260902153643 | 86 | 229 | 4.3 | 6.1 | 0.00 | 0.00 | 0.00 | 69 | 1056.5 |
| 20260902153204 | 86 | 222 | 4.3 | 11.3 | 0.00 | 0.00 | 0.00 | 67 | 1018.6 |
| 20260902153137 | 87 | 225 | 7.8 | 11.3 | 0.00 | 0.00 | 0.00 | 67 | 1056.3 |
| 20260902152704 | 86 | 235 | 2.6 | 7.8 | 0.00 | 0.00 | 0.00 | 67 | 1018.7 |
| 20260902152634 | 86 | 249 | 0.0 | 0.9 | 0.00 | 0.00 | 0.00 | 67 | 1056.4 |
| 20260902152203 | 86 | 241 | 1.7 | 6.1 | 0.00 | 0.00 | 0.00 | 68 | 1018.6 |
| 20260902152129 | 86 | 249 | 1.7 | 6.1 | 0.00 | 0.00 | 0.00 | 68 | 1056.3 |
| 20260902151704 | 85 | 198 | 2.6 | 4.3 | 0.00 | 0.00 | 0.00 | 69 | 1018.5 |
| 20260902151624 | 85 | 187 | 3.5 | 4.3 | 0.00 | 0.00 | 0.00 | 69 | 1056.3 |
| 20260902151204 | 85 | 220 | 2.6 | 7.8 | 0.00 | 0.00 | 0.00 | 69 | 1018.6 |
| 20260902151119 | 85 | 200 | 2.6 | 4.3 | 0.00 | 0.00 | 0.00 | 69 | 1056.4 |
| 20260902150704 | 84 | 196 | 1.7 | 4.3 | 0.00 | 0.00 | 0.00 | 70 | 1018.8 |
| 20260902150615 | 84 | 196 | 2.6 | 4.3 | 0.00 | 0.00 | 0.00 | 70 | 1056.7 |
| 20260902150204 | 84 | 243 | 1.7 | 5.2 | 0.00 | 0.00 | 0.00 | 71 | 1018.7 |
| 20260902150110 | 84 | 245 | 2.6 | 4.3 | 0.00 | 0.00 | 0.00 | 71 | 1056.4 |
| 20260902145704 | 84 | 200 | 2.6 | 5.2 | 0.00 | 0.00 | 0.00 | 71 | 1018.7 |
| 20260902145610 | 84 | 234 | 1.7 | 1.7 | 0.00 | 0.00 | 0.00 | 71 | 1056.5 |
| 20260902145109 | 84 | 209 | 0.9 | 0.9 | 0.00 | 0.00 | 0.00 | 71 | 1056.3 |
| 20260902144704 | 84 | 178 | 2.6 | 5.2 | 0.00 | 0.00 | 0.00 | 72 | 1018.6 |
| 20260902144606 | 84 | 198 | 2.6 | 4.3 | 0.00 | 0.00 | 0.00 | 72 | 1056.4 |
| 20260902144204 | 84 | 195 | 1.7 | 2.6 | 0.00 | 0.00 | 0.00 | 72 | 1018.6 |
| 20260902144106 | 84 | 197 | 0.9 | 2.6 | 0.00 | 0.00 | 0.00 | 71 | 1056.3 |
| 20260902143601 | 83 | 205 | 1.7 | 4.3 | 0.00 | 0.00 | 0.00 | 73 | 1056.4 |
| 20260902143203 | 83 | 184 | 1.7 | 5.2 | 0.00 | 0.00 | 0.00 | 73 | 1018.7 |
| 20260902143057 | 83 | 177 | 1.7 | 1.7 | 0.00 | 0.00 | 0.00 | 73 | 1056.5 |
| 20260902142705 | 83 | 166 | 0.9 | 2.6 | 0.00 | 0.00 | 0.00 | 73 | 1018.4 |
| 20260902142552 | 83 | 195 | 0.9 | 1.7 | 0.00 | 0.00 | 0.00 | 73 | 1056.2 |
| 20260902142048 | 82 | 147 | 2.6 | 4.3 | 0.00 | 0.00 | 0.00 | 74 | 1056.2 |
| 20260902141703 | 82 | 219 | 2.6 | 5.2 | 0.00 | 0.00 | 0.00 | 75 | 1018.4 |
| 20260902141548 | 82 | 217 | 2.6 | 2.6 | 0.00 | 0.00 | 0.00 | 75 | 1056.2 |
| 20260902141204 | 82 | 201 | 3.5 | 5.2 | 0.00 | 0.00 | 0.00 | 75 | 1018.3 |
| 20260902141043 | 82 | 215 | 4.3 | 5.2 | 0.00 | 0.00 | 0.00 | 75 | 1056.1 |
| 20260902140704 | 82 | 211 | 1.7 | 4.3 | 0.00 | 0.00 | 0.00 | 75 | 1018.4 |
| 20260902140543 | 82 | 201 | 1.7 | 4.3 | 0.00 | 0.00 | 0.00 | 75 | 1056.3 |
| 20260902140203 | 81 | 195 | 1.7 | 5.2 | 0.00 | 0.00 | 0.00 | 75 | 1018.4 |
| 20260902140039 | 81 | 219 | 2.6 | 4.3 | 0.00 | 0.00 | 0.00 | 75 | 1056.2 |
| 20260902135703 | 81 | 251 | 1.7 | 5.2 | 0.00 | 0.00 | 0.00 | 76 | 1018.4 |
| 20260902135539 | 81 | 200 | 0.9 | 0.9 | 0.00 | 0.00 | 0.00 | 77 | 1056.3 |
| 20260902135204 | 80 | 239 | 2.6 | 7.0 | 0.00 | 0.00 | 0.00 | 77 | 1018.2 |
| 20260902135039 | 80 | 250 | 3.5 | 4.3 | 0.00 | 0.00 | 0.00 | 78 | 1055.9 |
| 20260902134535 | 80 | 207 | 2.6 | 2.6 | 0.00 | 0.00 | 0.00 | 78 | 1056.0 |
| 20260902134035 | 80 | 205 | 2.6 | 4.3 | 0.00 | 0.00 | 0.00 | 78 | 1056.1 |
| 20260902133704 | 79 | 200 | 4.3 | 7.0 | 0.00 | 0.00 | 0.00 | 79 | 1018.5 |
| 20260902133530 | 79 | 212 | 4.3 | 6.1 | 0.00 | 0.00 | 0.00 | 79 | 1056.3 |
| 20260902133030 | 79 | 173 | 5.2 | 7.0 | 0.00 | 0.00 | 0.00 | 80 | 1056.2 |
| 20260902132704 | 78 | 207 | 2.6 | 5.2 | 0.00 | 0.00 | 0.00 | 81 | 1018.4 |
| 20260902132525 | 78 | 206 | 3.5 | 5.2 | 0.00 | 0.00 | 0.00 | 81 | 1056.3 |
| 20260902132204 | 78 | 240 | 2.6 | 6.1 | 0.00 | 0.00 | 0.00 | 82 | 1018.5 |
| 20260902132020 | 78 | 250 | 4.3 | 6.1 | 0.00 | 0.00 | 0.00 | 82 | 1056.4 |
| 20260902131703 | 78 | 213 | 4.3 | 7.0 | 0.00 | 0.00 | 0.00 | 82 | 1018.6 |
| 20260902131517 | 78 | 209 | 4.3 | 7.0 | 0.00 | 0.00 | 0.00 | 83 | 1056.4 |
| 20260902131203 | 77 | 201 | 0.9 | 5.2 | 0.00 | 0.00 | 0.00 | 83 | 1018.4 |
| 20260902131016 | 77 | 209 | 0.9 | 1.7 | 0.00 | 0.00 | 0.00 | 83 | 1056.2 |
| 20260902130704 | 77 | 209 | 1.7 | 7.0 | 0.00 | 0.00 | 0.00 | 84 | 1018.8 |
| 20260902130512 | 77 | 197 | 1.7 | 2.6 | 0.00 | 0.00 | 0.00 | 84 | 1056.3 |
| 20260902130008 | 76 | 198 | 1.7 | 2.6 | 0.00 | 0.00 | 0.00 | 84 | 1056.2 |
| 20260902125703 | 76 | 201 | 0.9 | 2.6 | 0.00 | 0.00 | 0.00 | 84 | 1018.5 |
| 20260902125503 | 76 | 187 | 2.6 | 2.6 | 0.00 | 0.00 | 0.00 | 84 | 1056.5 |
| 20260902125204 | 76 | 196 | 0.9 | 4.3 | 0.00 | 0.00 | 0.00 | 84 | 1018.6 |
| 20260902124958 | 76 | 187 | 0.9 | 1.7 | 0.00 | 0.00 | 0.00 | 85 | 1056.4 |
| 20260902124703 | 76 | 181 | 0.9 | 4.3 | 0.00 | 0.00 | 0.00 | 85 | 1018.5 |
| 20260902124455 | 76 | 162 | 1.7 | 2.6 | 0.00 | 0.00 | 0.00 | 85 | 1056.3 |
| 20260902124203 | 76 | 203 | 2.6 | 6.1 | 0.00 | 0.00 | 0.00 | 85 | 1018.5 |
| 20260902123949 | 76 | 227 | 3.5 | 4.3 | 0.00 | 0.00 | 0.00 | 85 | 1056.0 |
| 20260902123704 | 75 | 200 | 2.6 | 6.1 | 0.00 | 0.00 | 0.00 | 85 | 1018.4 |
| 20260902123446 | 75 | 177 | 2.6 | 4.3 | 0.00 | 0.00 | 0.00 | 85 | 1056.2 |
| 20260902123203 | 76 | 189 | 1.7 | 4.3 | 0.00 | 0.00 | 0.00 | 85 | 1018.3 |
| 20260902122944 | 76 | 189 | 2.6 | 4.3 | 0.00 | 0.00 | 0.00 | 85 | 1056.1 |
| 20260902122703 | 76 | 220 | 5.2 | 11.3 | 0.00 | 0.00 | 0.00 | 84 | 1018.3 |
| 20260902122440 | 76 | 212 | 0.0 | 0.9 | 0.00 | 0.00 | 0.00 | 84 | 1056.1 |
| 20260902122203 | 76 | 212 | 2.6 | 6.1 | 0.00 | 0.00 | 0.00 | 84 | 1018.4 |
| 20260902121935 | 76 | 204 | 4.3 | 6.1 | 0.00 | 0.00 | 0.00 | 84 | 1056.1 |
| 20260902121703 | 76 | 186 | 1.7 | 2.6 | 0.00 | 0.00 | 0.00 | 85 | 1018.4 |
| 20260902121435 | 76 | 188 | 0.9 | 1.7 | 0.00 | 0.00 | 0.00 | 85 | 1056.1 |
| 20260902120930 | 75 | 208 | 2.6 | 2.6 | 0.00 | 0.00 | 0.00 | 85 | 1056.2 |
| 20260902120703 | 75 | 206 | 0.9 | 2.6 | 0.00 | 0.00 | 0.00 | 85 | 1018.4 |
| 20260902120427 | 75 | 195 | 0.9 | 1.7 | 0.00 | 0.00 | 0.00 | 86 | 1056.2 |
| 20260902120203 | 75 | 244 | 2.6 | 6.1 | 0.00 | 0.00 | 0.00 | 85 | 1018.2 |
| 20260902115926 | 75 | 191 | 0.9 | 1.7 | 0.00 | 0.00 | 0.00 | 86 | 1056.1 |
| 20260902115704 | 75 | 211 | 2.6 | 6.1 | 0.00 | 0.00 | 0.00 | 85 | 1018.3 |
| 20260902115422 | 75 | 237 | 4.3 | 6.1 | 0.00 | 0.00 | 0.00 | 85 | 1056.2 |
| 20260902115203 | 75 | 202 | 0.9 | 4.3 | 0.00 | 0.00 | 0.00 | 86 | 1018.1 |
| 20260902114919 | 75 | 205 | 0.9 | 1.7 | 0.00 | 0.00 | 0.00 | 86 | 1056.1 |
| 20260902114414 | 75 | 195 | 0.9 | 1.7 | 0.00 | 0.00 | 0.00 | 86 | 1056.0 |
| 20260902114204 | 75 | 224 | 2.6 | 4.3 | 0.00 | 0.00 | 0.00 | 86 | 1018.1 |
| 20260902113909 | 75 | 189 | 0.9 | 0.9 | 0.00 | 0.00 | 0.00 | 86 | 1055.8 |
| 20260902113703 | 74 | 198 | 0.9 | 2.6 | 0.00 | 0.00 | 0.00 | 86 | 1018.1 |
| 20260902113405 | 75 | 156 | 0.0 | 0.0 | 0.00 | 0.00 | 0.00 | 86 | 1056.0 |
| 20260902113204 | 74 | 201 | 0.9 | 4.3 | 0.00 | 0.00 | 0.00 | 86 | 1018.2 |
| 20260902112904 | 74 | 224 | 2.6 | 4.3 | 0.00 | 0.00 | 0.00 | 86 | 1055.7 |
| 20260902112703 | 74 | 187 | 0.9 | 4.3 | 0.00 | 0.00 | 0.00 | 86 | 1018.0 |
| 20260902112401 | 74 | 207 | 1.7 | 4.3 | 0.00 | 0.00 | 0.00 | 86 | 1055.9 |
| 20260902112203 | 74 | 222 | 1.7 | 2.6 | 0.00 | 0.00 | 0.00 | 87 | 1018.0 |
| 20260902111856 | 74 | 196 | 0.9 | 1.7 | 0.00 | 0.00 | 0.00 | 87 | 1055.7 |
| 20260902111352 | 74 | 190 | 2.6 | 2.6 | 0.00 | 0.00 | 0.00 | 87 | 1055.7 |
| 20260902110848 | 74 | 201 | 0.0 | 0.0 | 0.00 | 0.00 | 0.00 | 87 | 1055.6 |
| 20260902110704 | 74 | 190 | 0.9 | 1.7 | 0.00 | 0.00 | 0.00 | 87 | 1017.9 |
| 20260902110343 | 74 | 193 | 0.0 | 0.0 | 0.00 | 0.00 | 0.00 | 87 | 1055.4 |
| 20260902110203 | 74 | 226 | 0.0 | 0.9 | 0.00 | 0.00 | 0.00 | 87 | 1017.7 |
| 20260902105843 | 74 | 206 | 0.9 | 0.9 | 0.00 | 0.00 | 0.00 | 87 | 1055.5 |
| 20260902105703 | 74 | 202 | 0.9 | 1.7 | 0.00 | 0.00 | 0.00 | 87 | 1017.9 |
| 20260902105338 | 74 | 209 | 0.9 | 0.9 | 0.00 | 0.00 | 0.00 | 87 | 1055.5 |
| 20260902104833 | 74 | 196 | 0.0 | 0.0 | 0.00 | 0.00 | 0.00 | 87 | 1055.3 |
| 20260902104703 | 74 | 198 | 0.0 | 0.9 | 0.00 | 0.00 | 0.00 | 86 | 1017.8 |
| 20260902104330 | 75 | 200 | 0.0 | 0.0 | 0.00 | 0.00 | 0.00 | 86 | 1055.4 |
| 20260902104204 | 75 | 202 | 0.9 | 2.6 | 0.00 | 0.00 | 0.00 | 86 | 1017.9 |
| 20260902103829 | 75 | 200 | 0.0 | 0.0 | 0.00 | 0.00 | 0.00 | 86 | 1055.5 |
| 20260902103703 | 75 | 210 | 0.9 | 2.6 | 0.00 | 0.00 | 0.00 | 86 | 1017.7 |
| 20260902103324 | 75 | 173 | 0.0 | 0.9 | 0.00 | 0.00 | 0.00 | 86 | 1055.6 |
| 20260902103204 | 75 | 194 | 1.7 | 2.6 | 0.00 | 0.00 | 0.00 | 86 | 1017.7 |
| 20260902102819 | 75 | 174 | 0.9 | 0.9 | 0.00 | 0.00 | 0.00 | 86 | 1055.2 |
| 20260902102704 | 75 | 200 | 0.0 | 1.7 | 0.00 | 0.00 | 0.00 | 86 | 1017.7 |
| 20260902102318 | 75 | 201 | 0.0 | 0.9 | 0.00 | 0.00 | 0.00 | 86 | 1055.5 |
| 20260902101813 | 75 | 198 | 0.0 | 0.9 | 0.00 | 0.00 | 0.00 | 86 | 1055.2 |
| 20260902101704 | 75 | 219 | 0.9 | 1.7 | 0.00 | 0.00 | 0.00 | 86 | 1017.6 |
| 20260902101307 | 75 | 231 | 0.0 | 0.9 | 0.00 | 0.00 | 0.00 | 86 | 1055.4 |
| 20260902101203 | 75 | 196 | 1.7 | 4.3 | 0.00 | 0.00 | 0.00 | 86 | 1017.6 |
| 20260902100807 | 75 | 185 | 0.9 | 0.9 | 0.00 | 0.00 | 0.00 | 86 | 1055.4 |
| 20260902100703 | 75 | 199 | 0.9 | 1.7 | 0.00 | 0.00 | 0.00 | 86 | 1017.7 |
| 20260902100306 | 75 | 211 | 0.0 | 0.0 | 0.00 | 0.00 | 0.00 | 86 | 1055.3 |
| 20260902095801 | 75 | 194 | 1.7 | 2.6 | 0.00 | 0.00 | 0.00 | 86 | 1055.5 |
| 20260902095703 | 75 | 170 | 0.9 | 1.7 | 0.00 | 0.00 | 0.00 | 86 | 1017.7 |
| 20260902095301 | 75 | 199 | 1.7 | 1.7 | 0.00 | 0.00 | 0.00 | 86 | 1055.3 |
| 20260902095203 | 75 | 172 | 0.9 | 4.3 | 0.00 | 0.00 | 0.00 | 86 | 1017.6 |
| 20260902094756 | 75 | 193 | 1.7 | 4.3 | 0.00 | 0.00 | 0.00 | 86 | 1055.3 |
| 20260902094703 | 75 | 202 | 0.9 | 1.7 | 0.00 | 0.00 | 0.00 | 86 | 1017.5 |
| 20260902094253 | 75 | 223 | 0.9 | 0.9 | 0.00 | 0.00 | 0.00 | 86 | 1055.3 |
| 20260902093752 | 75 | 191 | 0.0 | 0.0 | 0.00 | 0.00 | 0.00 | 86 | 1055.4 |
| 20260902093247 | 75 | 198 | 1.7 | 2.6 | 0.00 | 0.00 | 0.00 | 87 | 1055.6 |
| 20260902093203 | 75 | 204 | 0.9 | 1.7 | 0.00 | 0.00 | 0.00 | 87 | 1017.7 |
| 20260902092746 | 75 | 188 | 0.0 | 0.9 | 0.00 | 0.00 | 0.00 | 87 | 1055.4 |
| 20260902092242 | 75 | 211 | 0.9 | 0.9 | 0.00 | 0.00 | 0.00 | 87 | 1055.5 |
| 20260902092203 | 75 | 208 | 0.0 | 0.9 | 0.00 | 0.00 | 0.00 | 87 | 1017.6 |
| 20260902091741 | 75 | 197 | 0.0 | 0.0 | 0.00 | 0.00 | 0.00 | 87 | 1055.6 |
| 20260902091704 | 75 | 203 | 0.9 | 1.7 | 0.00 | 0.00 | 0.00 | 87 | 1017.8 |
| 20260902091238 | 75 | 211 | 0.9 | 0.9 | 0.00 | 0.00 | 0.00 | 87 | 1055.4 |
| 20260902091204 | 75 | 198 | 0.0 | 0.0 | 0.00 | 0.00 | 0.00 | 87 | 1017.9 |
| 20260902090734 | 75 | 196 | 0.0 | 0.0 | 0.00 | 0.00 | 0.00 | 86 | 1055.5 |
| 20260902090703 | 75 | 195 | 0.0 | 1.7 | 0.00 | 0.00 | 0.00 | 86 | 1017.7 |
| 20260902090233 | 75 | 190 | 0.0 | 0.9 | 0.00 | 0.00 | 0.00 | 86 | 1055.4 |
| 20260902090203 | 75 | 215 | 1.7 | 1.7 | 0.00 | 0.00 | 0.00 | 86 | 1017.7 |
| 20260902085727 | 75 | 200 | 0.9 | 0.9 | 0.00 | 0.00 | 0.00 | 87 | 1055.7 |
| 20260902085222 | 75 | 194 | 0.0 | 0.0 | 0.00 | 0.00 | 0.00 | 86 | 1055.5 |
| 20260902084719 | 75 | 191 | 0.0 | 0.0 | 0.00 | 0.00 | 0.00 | 87 | 1055.6 |
| 20260902084215 | 75 | 167 | 0.0 | 0.9 | 0.00 | 0.00 | 0.00 | 87 | 1055.4 |
| 20260902083714 | 75 | 185 | 0.9 | 0.9 | 0.00 | 0.00 | 0.00 | 87 | 1055.4 |
| 20260902083214 | 75 | 193 | 0.0 | 0.9 | 0.00 | 0.00 | 0.00 | 87 | 1055.4 |
| 20260902082710 | 75 | 181 | 0.9 | 0.9 | 0.00 | 0.00 | 0.00 | 87 | 1055.4 |
| 20260902082206 | 75 | 204 | 0.9 | 0.9 | 0.00 | 0.00 | 0.00 | 88 | 1055.2 |
| 20260902081702 | 74 | 201 | 0.0 | 0.9 | 0.00 | 0.00 | 0.00 | 88 | 1055.3 |
| 20260902081157 | 74 | 193 | 0.0 | 0.9 | 0.00 | 0.00 | 0.00 | 88 | 1055.5 |
| 20260902080652 | 74 | 176 | 0.0 | 0.9 | 0.00 | 0.00 | 0.00 | 88 | 1055.7 |
| 20260902080149 | 74 | 191 | 0.9 | 0.9 | 0.00 | 0.00 | 0.00 | 88 | 1055.4 |
| 20260902075648 | 74 | 204 | 0.9 | 0.9 | 0.00 | 0.00 | 0.00 | 88 | 1055.4 |
| 20260902075144 | 74 | 194 | 0.0 | 0.0 | 0.00 | 0.00 | 0.00 | 88 | 1055.3 |
| 20260902074639 | 74 | 194 | 0.0 | 0.0 | 0.00 | 0.00 | 0.00 | 88 | 1055.5 |
| 20260902074135 | 74 | 194 | 0.0 | 0.0 | 0.00 | 0.00 | 0.00 | 88 | 1055.2 |
| 20260902073630 | 74 | 183 | 0.9 | 0.9 | 0.00 | 0.00 | 0.00 | 88 | 1055.2 |
| 20260902073126 | 75 | 194 | 0.0 | 0.0 | 0.00 | 0.00 | 0.00 | 87 | 1055.3 |
| 20260902072622 | 75 | 173 | 0.9 | 0.9 | 0.00 | 0.00 | 0.00 | 87 | 1055.5 |
| 20260902072118 | 75 | 198 | 0.0 | 0.0 | 0.00 | 0.00 | 0.00 | 87 | 1055.3 |
| 20260902071613 | 75 | 182 | 0.0 | 0.0 | 0.00 | 0.00 | 0.00 | 87 | 1055.1 |
| 20260902071109 | 75 | 184 | 0.0 | 0.0 | 0.00 | 0.00 | 0.00 | 87 | 1055.3 |
| 20260902070604 | 75 | 192 | 0.0 | 0.0 | 0.00 | 0.00 | 0.00 | 87 | 1055.3 |
| 20260902070059 | 75 | 193 | 0.0 | 0.9 | 0.00 | 0.00 | 0.00 | 87 | 1055.2 |
| 20260902065558 | 75 | 204 | 0.0 | 0.9 | 0.00 | 0.00 | 0.00 | 86 | 1055.1 |
| 20260902065054 | 75 | 196 | 0.0 | 0.0 | 0.00 | 0.00 | 0.00 | 87 | 1055.1 |
| 20260902064550 | 75 | 168 | 0.0 | 0.0 | 0.00 | 0.00 | 0.00 | 87 | 1055.4 |
| 20260902064045 | 75 | 197 | 0.0 | 0.0 | 0.00 | 0.00 | 0.00 | 87 | 1055.4 |
| 20260902063545 | 75 | 230 | 1.7 | 1.7 | 0.00 | 0.00 | 0.00 | 87 | 1055.4 |
| 20260902063040 | 75 | 204 | 0.9 | 0.9 | 0.00 | 0.00 | 0.00 | 87 | 1055.5 |
| 20260902062538 | 75 | 176 | 0.0 | 0.0 | 0.00 | 0.00 | 0.00 | 87 | 1055.4 |
| 20260902062034 | 75 | 191 | 0.0 | 0.0 | 0.00 | 0.00 | 0.00 | 87 | 1055.2 |
| 20260902061534 | 75 | 192 | 0.0 | 0.0 | 0.00 | 0.00 | 0.00 | 87 | 1055.3 |
| 20260902061030 | 75 | 188 | 0.9 | 1.7 | 0.00 | 0.00 | 0.00 | 87 | 1055.4 |
| 20260902060526 | 75 | 197 | 0.0 | 0.0 | 0.00 | 0.00 | 0.00 | 87 | 1055.4 |